Погода в Коте

Индия     25°10′37″N   75°50′56″E
темп.,
°C
ветер,
м/с
пор.,
м/с
влажн.,
%
обл.,
%
осадки,
мм/ч
давл.,
гПа
погр.,
м
18 августа, чт
чт1823:30+25ююз510872 0.0 1004496
02:30+25ююз5985100 0.0 1002495
05:30+25ююз598693 0.0 1003475
08:30+26юз798026 0.0 1005725
11:30+29юз686779 0.1 10041400
14:30+31юз576387 0.1 10021479
17:30+30юз45682 0.2 1001706
20:30+27юз49790 0.0 1002289
19 августа, пт
пт1923:30+26юз511830 0.1 1003475
02:30+25зюз511862 0.0 1003521
05:30+25зюз488612 0.0 1003446
08:30+27зюз567822 0.0 1004673
11:30+30з456665 0.2 10041259
14:30+32з335889 0.5 10021559
17:30+31зсз356869 1.1 1001346
20:30+28з46765 1.3 100394
20 августа, сб
сб2023:30+27зюз478315 2.0 1004133
02:30+26зюз368585 0.1 1002133
05:30+26з3784100 0.2 1002161
08:30+27зсз4781100 0.8 1004279
11:30+30зсз4566100 0.8 1004782
14:30+32ссз2358100 3.4 10021138
17:30+30з3369100 3.9 100184
20:30+28юз2276100 5.6 100238
21 августа, вс
вс2123:30+27зюз3379100 6.8 100245
02:30+26зсз4983100 1.4 1001213
05:30+25зсз3786100 3.2 1002197
08:30+24зсз2491100 5.8 1003166
11:30+25зсз3687100 8.9 1003322
14:30+24зсз5893100 6.0 1001399
17:30+25з5988100 6.3 1000306
20:30+25зсз4988100 0.0 1001253
22 августа, пн
пн2223:30+25зсз3690100 0.4 1001181
02:30+24з3695100 3.6 999223
05:30+24зсз4993100 4.4 999336
08:30+26сз61087100 0.6 1001559
11:30+30ссз567253 1.9 10001058
14:30+30с4569100 4.0 9971065
17:30+28ссв2582100 10.3 997282
20:30+26с2391100 7.9 99861